Cosmos 1607 - Orbit

View from above orbital plane
View from above orbital plane
View from above satellite
View from above satellite

Ground track
Ground track

The orbit data is extracted from the following two-line orbital elements,

1 15378U 84112A   13140.52116738 -.00000039  00000-0  44913-4 0  6166
2 15378 064.9909 183.1044 0030277 138.4932 006.2054 13.83493450444529
Epoch (UTC): 20 May 2013 12:30:28
Eccentricity: 0.0030277
inclination: 64.9909°
perigee height: 929 km
apogee height: 974 km
right ascension of ascending node: 183.1044°
argument of perigee: 138.4932°
revolutions per day: 13.83493450
mean anomaly at epoch: 6.2054°
orbit number at epoch: 44452

The dashed part of the orbit path shows where the satellite is in the earth's shadow,  

Developed and maintained by Chris Peat, Heavens-Above GmbH. Please read the updated FAQ before sending e-mail. Imprint. DLR